Dewpoint
13 8 14 14 14 11 10 7 6 6 5 2 3 8 8 8 10 11 11 11 10 9 6 2 3 12 13 13 14 12 11 11 10 9 7 1 -5 -6 -8 -7 11 11 12
13 12 13 14 13 11 11 9 8 8 3 8 7 8 11 12 12 12 10 9 7 4 1 -3 0 11 11 12 11 11 11 11 10 6 -3 2 5 -2 -3 5 8 11 12
14 15 13 14 14 12 11 10 9 7 7 12 11 10 10 11 10 10 8 3 0 -2 -3 -1 4 7 10 10 10 10 11 10 2 -5 -3 8 8 -0 -1 3 9 9 8
14 15 15 14 15 13 11 10 9 7 3 11 10 6 9 9 8 6 4 1 -1 -1 -2 -1 -1 -4 -2 1 2 3 2 -3 -6 -5 7 6 7 5 -3 -1 3 8 9
14 15 15 13 14 13 11 10 10 6 2 3 9 9 9 10 9 7 7 6 2 0 0 0 1 2 1 2 2 1 8 5 -0 10 10 10 1 9 -2 -6 -2 7 10
14 15 16 15 14 14 14 11 11 6 3 7 10 9 9 7 8 10 9 9 6 2 2 2 5 8 4 3 4 3 3 2 3 10 10 10 10 6 5 3 -0 -2 2
14 16 15 15 14 14 14 13 12 5 3 8 10 10 10 11 11 11 11 9 9 4 3 4 9 10 8 9 10 8 7 7 7 12 11 11 11 6 5 5 5 6 5
13 15 15 15 14 14 14 13 13 6 2 7 10 10 10 10 11 11 11 10 9 6 3 7 8 10 10 10 9 9 8 7 7 11 11 11 9 7 6 7 10 10 9
13 14 15 15 14 14 14 13 13 7 2 5 9 10 10 10 11 11 12 11 10 6 3 8 9 10 10 10 9 8 6 4 4 8 6 8 5 2 1 2 7 10 11
13 14 15 15 15 14 14 13 13 8 3 2 6 9 10 11 11 11 11 11 10 4 3 8 9 10 9 8 7 6 3 4 5 4 5 3 -2 -2 -1 1 3 3 5
13 14 14 14 14 15 13 13 13 11 9 3 2 3 7 11 11 11 9 8 5 2 6 8 8 10 8 6 5 1 -3 2 1 1 1 -3 -4 -3 -3 -2 -2 -0 3
13 13 13 13 13 15 14 13 13 12 10 7 4 -0 7 9 9 11 5 3 1 5 8 8 9 9 8 7 4 -4 -4 -5 -4 -3 -1 -2 -4 -4 -3 6 4 3 5
12 13 14 14 14 14 15 15 13 13 13 13 12 9 7 1 2 4 4 4 9 8 9 9 9 8 7 3 -5 -6 -6 -6 -6 -3 -1 -4 -10 4 8 8 5 7 8
11 12 14 14 15 14 14 14 14 13 13 13 12 11 7 9 6 9 11 12 11 9 8 9 9 7 -3 -6 -7 -9 -9 -9 -6 -5 -3 -7 -9 -5 -2 -1 4 4 5
9 12 13 14 13 15 14 14 14 13 12 12 13 12 10 10 10 11 10 9 8 9 9 9 5 -5 -6 -8 -10 -11 -11 -11 -8 -6 -3 -6 -7 -4 -2 -1 1 2 2
7 10 12 14 13 12 14 15 14 13 12 12 13 12 11 11 11 9 9 10 9 9 9 3 -5 -7 -8 -13 -14 -11 -11 -9 -11 -8 -3 -6 -6 -5 -4 -3 -2 -2 -2
4 7 10 12 14 9 12 14 14 13 13 13 13 11 11 12 11 10 10 10 9 9 4 -5 -6 -7 -11 -15 -13 -11 -12 -12 -9 -8 -5 -5 -6 -8 -7 -8 -10 -12 -14
3 4 7 10 12 14 7 12 14 13 13 13 12 12 12 11 9 10 10 9 9 7 -5 -4 -4 -6 -9 -14 -16 -15 -11 -11 -8 -8 -8 -8 -9 -12 -13 -16 -20 -20 -22
3 3 3 6 10 13 8 12 14 14 13 13 13 13 11 10 10 10 9 9 9 -5 -2 -2 -3 -4 -8 -13 -19 -18 -16 -11 -7 -9 -8 -8 -7 -11 -21 -18 -16 -17 -19
3 3 3 4 6 11 12 13 14 13 13 13 12 11 11 10 11 10 10 9 -4 -2 -1 -1 -1 -3 -7 -14 -21 -15 -14 -12 -7 -6 -5 -11 -11 -16 -19 -18 -18 -18 -19
2 3 3 3 6 9 12 12 13 13 13 13 12 11 11 11 11 10 9 -1 -2 -0 -0 -0 -1 -2 -7 -14 -18 -15 -9 -14 -7 -3 -13 -11 -11 -13 -14 -15 -17 -17 -18
3 4 4 5 7 10 11 8 13 13 13 13 12 11 11 12 10 9 4 -5 -0 -0 0 0 0 -3 -6 -12 -18 -11 -10 -10 -10 -11 -13 -12 -13 -14 -13 -15 -15 -17 -18
2 3 4 6 9 10 6 7 13 13 12 12 12 12 12 12 9 6 -5 -1 -0 -0 0 0 0 -2 -7 -12 -16 -17 -11 -10 -13 -12 -12 -12 -11 -12 -13 -13 -14 -15 -18
2 3 4 7 11 9 5 8 11 7 12 12 11 12 11 10 5 0 -3 -0 -0 -0 0 0 -0 -1 -6 -12 -13 -16 -17 -16 -11 -11 -11 -11 -11 -12 -11 -12 -14 -18 -19
-1 2 4 8 11 12 6 8 11 11 12 12 12 12 10 8 4 -2 -1 -1 -1 -1 -0 -0 -0 -2 -5 -11 -14 -16 -16 -13 -11 -10 -10 -11 -11 -10 -10 -11 -11 -12 -12
-2 1 3 8 10 11 6 11 10 10 10 11 11 11 10 7 -1 -2 -1 -1 -1 -1 -1 -0 -1 -2 -5 -10 -14 -15 -15 -14 -12 -10 -10 -11 -10 -11 -11 -13 -13 -14 -13
Wind_Speed
12 13 15 14 12 9 8 6 5 4 3 4 7 7 6 5 1 1 2 4 6 8 9 7 3 4 6 7 8 1 2 6 7 8 10 11 10 7 6 6 5 4 11
17 16 16 16 12 10 8 6 5 4 5 10 9 11 10 8 5 2 3 6 6 7 6 4 4 5 3 2 1 2 4 7 11 10 9 8 9 6 4 2 2 3 7
18 18 16 15 13 10 8 6 5 5 9 9 6 8 10 7 4 2 2 3 3 4 4 5 4 4 6 5 5 6 9 11 10 8 7 8 7 7 4 1 1 3 4
17 17 17 16 14 9 6 5 4 5 7 7 5 7 9 8 7 5 7 8 8 8 7 7 6 3 2 4 5 3 5 6 6 6 8 3 3 11 6 4 3 3 5
16 15 16 17 14 8 5 6 4 5 6 8 14 15 13 13 10 7 8 9 9 9 9 8 8 8 7 5 4 5 4 6 5 10 6 6 6 10 8 7 6 5 7
16 14 16 15 13 8 6 6 4 4 7 13 16 14 13 13 10 6 5 7 7 7 7 7 7 9 8 7 7 8 8 8 7 5 5 7 7 9 10 9 9 8 8
16 16 13 15 12 8 7 5 4 6 7 11 15 13 10 9 7 6 4 5 5 5 6 7 8 6 8 9 9 10 10 10 9 6 7 7 9 12 12 11 11 10 9
16 14 13 15 12 9 9 7 7 3 7 12 14 12 9 8 5 6 4 2 2 4 4 5 6 6 6 6 9 11 11 11 8 7 8 8 13 14 14 12 10 12 13
14 15 13 15 14 11 10 8 7 3 6 12 13 11 9 7 3 6 8 2 1 2 3 3 3 4 6 8 10 12 12 12 8 8 7 6 11 11 11 10 10 11 13
14 15 14 14 13 15 14 11 8 5 7 10 12 10 9 7 4 5 6 6 3 3 3 3 5 7 9 11 11 12 12 10 8 8 6 10 12 12 12 11 11 11 13
13 15 15 14 14 15 16 14 11 7 9 9 9 10 9 5 6 6 6 4 4 4 4 5 7 9 10 10 13 13 11 6 8 8 7 13 14 14 14 14 14 14 14
13 15 16 17 16 16 15 15 13 11 11 9 8 9 8 9 9 9 6 5 5 4 5 7 8 9 8 8 12 13 10 13 11 11 13 15 15 14 12 10 12 12 12
14 16 18 17 18 20 16 15 15 11 12 11 9 9 9 10 9 7 4 1 3 3 5 7 8 10 13 13 15 14 15 16 12 8 16 16 12 5 3 9 10 8 10
16 17 17 18 18 17 17 17 16 14 12 11 11 10 9 9 11 8 7 7 6 2 5 7 9 12 13 15 17 16 13 13 8 6 14 11 7 8 9 9 9 11 11
17 18 18 18 22 20 18 19 19 15 15 13 12 12 10 9 8 11 9 5 4 5 6 9 10 12 15 17 15 14 11 10 6 5 10 8 6 7 8 8 10 10 11
16 19 18 19 18 21 21 19 20 14 14 16 14 12 13 10 13 12 9 5 6 7 8 9 12 15 15 16 13 11 10 8 6 4 4 9 7 8 9 10 12 12 13
16 18 20 20 20 20 21 21 19 15 16 20 16 14 14 16 15 10 8 8 8 8 7 10 13 14 15 14 11 9 9 8 6 4 4 4 8 8 10 11 13 13 14
19 19 20 20 21 21 22 22 23 19 19 20 18 18 18 16 11 10 9 8 8 6 7 10 12 13 14 13 12 9 8 10 5 3 3 2 7 6 12 11 13 15 16
21 20 20 22 22 23 20 22 23 22 21 16 16 18 17 14 12 10 10 10 8 4 5 9 12 13 13 12 11 10 9 4 4 4 2 5 10 11 11 16 16 18 19
25 22 22 23 22 23 19 22 26 23 23 28 26 20 17 17 16 14 12 10 6 3 5 8 11 13 13 12 9 7 6 3 5 4 4 5 11 13 13 14 17 18 21
30 25 23 25 23 25 27 28 31 32 32 31 25 20 21 21 18 15 13 11 6 1 4 8 12 13 13 12 8 5 4 6 3 5 7 7 9 11 12 13 20 20 21
29 27 25 24 25 26 33 30 34 38 36 26 25 23 23 22 20 17 14 11 6 1 4 8 11 12 14 13 11 6 3 2 2 5 14 8 9 12 16 21 22 20 22
32 29 27 24 25 30 29 31 37 38 34 32 29 28 27 27 23 19 15 11 6 1 4 8 11 12 12 12 10 5 3 3 13 6 7 13 10 19 20 25 23 21 26
35 31 28 25 27 28 30 33 38 40 42 36 32 31 30 28 24 20 16 12 6 1 4 8 11 12 12 10 8 8 3 6 3 9 5 13 16 18 23 23 25 27 21
34 35 32 26 27 26 32 31 36 38 37 37 34 33 33 30 24 21 17 12 6 2 5 8 11 13 13 10 9 8 7 7 8 10 20 13 22 19 21 18 24 23 19
34 29 34 29 30 30 31 34 36 31 36 37 36 36 35 31 27 23 18 12 6 4 6 8 11 13 13 12 10 10 8 8 8 11 17 24 25 26 21 25 19 19 22
Wind_Direction
150 162 161 157 169 170 162 137 108 107 124 167 190 194 195 200 218 337 324 315 311 307 315 325 166 101 101 103 125 153 313 303 290 299 303 307 311 310 298 264 239 19 271
155 159 162 161 170 160 151 138 115 97 95 109 132 150 144 135 129 103 355 325 312 313 327 336 179 174 167 114 310 312 290 301 311 319 327 355 350 0 354 61 131 230 269
151 159 160 159 162 153 149 146 124 101 117 138 132 157 162 144 122 33 321 349 22 23 29 56 124 197 220 230 244 266 277 292 309 324 15 41 324 342 346 30 283 302 320
153 162 163 165 165 165 159 154 128 111 129 146 119 130 167 150 148 100 69 60 59 55 58 62 61 47 231 249 266 287 309 316 352 17 31 344 6 318 317 297 279 291 310
156 165 177 164 165 174 179 164 145 118 126 145 124 122 135 135 130 103 69 56 51 53 55 56 54 49 47 36 12 11 9 8 29 36 349 331 0 303 319 311 299 297 283
158 160 197 172 167 168 169 170 165 128 132 134 138 135 134 135 142 129 90 63 49 47 49 47 44 29 28 24 15 10 8 11 10 345 344 326 353 318 325 321 311 303 294
162 169 199 175 170 178 174 163 160 129 144 146 152 151 155 161 178 184 121 89 54 41 46 43 46 35 32 24 12 4 359 356 8 359 340 325 307 320 318 317 317 316 316
168 171 189 173 179 187 187 179 182 126 150 154 157 157 163 170 176 179 173 122 51 30 30 43 54 35 20 356 351 346 341 337 345 328 307 327 301 315 314 316 323 316 315
171 167 197 186 190 192 196 195 207 162 158 164 168 170 171 180 160 164 177 182 60 350 6 47 30 357 342 338 339 341 342 342 352 310 339 317 311 324 324 321 308 295 294
173 175 183 183 191 194 190 207 210 200 170 172 182 180 178 183 185 154 170 190 227 299 318 338 340 343 340 337 340 341 340 349 348 342 342 295 313 318 318 314 309 302 296
183 184 183 187 191 188 198 206 213 214 184 177 183 190 188 171 199 201 204 221 260 291 307 315 322 328 337 341 337 339 342 328 333 310 310 299 307 309 309 308 303 299 296
197 195 192 189 188 204 201 206 218 228 200 184 183 190 178 195 196 197 220 238 254 272 295 312 324 329 334 325 321 338 326 318 319 311 295 297 301 299 303 301 292 298 303
208 202 198 196 196 197 194 201 201 191 207 178 189 197 195 201 200 199 217 243 274 271 328 337 334 322 320 322 322 323 317 318 318 316 286 298 303 326 259 260 292 284 274
212 209 211 201 201 198 198 207 193 183 209 187 198 192 190 181 178 174 176 176 212 289 303 303 309 317 321 322 320 316 312 310 314 303 294 309 304 278 274 287 273 276 282
217 210 209 202 204 201 202 202 208 186 201 200 200 195 184 180 168 182 182 183 215 253 287 303 311 320 320 321 321 318 316 315 308 291 284 301 292 280 282 285 285 287 285
222 214 207 206 211 209 202 204 211 193 205 202 196 193 184 181 193 201 203 223 248 270 289 307 320 324 326 325 326 322 319 318 307 288 236 301 285 281 285 287 289 290 290
227 219 213 209 209 216 213 200 204 196 202 210 187 191 186 197 210 202 207 227 245 271 295 320 329 332 333 333 325 320 314 300 298 295 260 239 298 282 284 290 293 295 297
230 221 217 214 211 223 218 208 200 202 201 203 193 194 193 212 209 209 221 233 251 269 312 331 338 339 338 333 327 314 304 298 255 242 254 237 275 286 307 298 297 301 305
231 224 218 211 209 217 229 211 201 208 203 195 189 188 211 207 206 217 227 231 241 270 322 340 343 345 343 338 331 324 311 302 232 221 266 299 291 296 306 306 303 303 303
232 231 222 213 209 207 226 202 204 203 200 194 204 205 211 206 203 213 214 217 214 257 343 354 352 351 354 350 343 334 316 302 232 231 269 304 290 301 305 312 314 316 316
231 227 222 214 215 200 201 210 205 202 200 212 198 206 211 207 206 207 208 201 202 258 359 1 358 358 359 1 6 343 331 320 274 246 307 289 299 306 311 308 315 314 309
229 227 221 214 207 200 212 218 207 204 211 201 202 206 209 207 204 202 198 198 197 217 4 2 7 4 358 5 12 26 341 262 334 294 275 289 290 298 305 310 311 309 310
230 227 224 214 202 207 216 214 201 213 206 202 201 204 202 202 199 201 193 198 199 215 357 2 6 8 2 357 8 32 5 317 300 299 305 294 297 296 306 309 312 310 311
230 226 222 211 203 213 217 209 212 211 205 204 202 200 199 195 193 195 193 201 202 243 345 357 2 4 3 353 356 349 321 275 302 305 259 294 293 304 305 305 305 311 308
233 225 218 211 205 201 219 211 202 205 200 200 193 196 194 193 191 192 196 203 205 261 334 348 355 358 354 346 337 329 319 301 285 275 296 295 296 296 299 301 299 303 296
233 230 216 207 207 204 218 205 205 197 201 196 192 193 195 193 190 194 198 206 214 267 317 337 346 349 344 337 329 320 311 300 274 283 288 294 300 307 297 306 295 309 298
Height
1492 1491 1495 1497 1499 1501 1503 1503 1503 1504 1504 1504 1505 1507 1509 1510 1511 1512 1512 1513 1514 1513 1513 1513 1513 1514 1514 1515 1514 1516 1517 1517 1518 1518 1518 1517 1516 1515 1515 1515 1516 1519 1519
1491 1491 1494 1497 1499 1501 1502 1504 1504 1504 1505 1505 1505 1507 1509 1510 1511 1512 1513 1514 1513 1513 1513 1513 1514 1515 1516 1515 1516 1517 1518 1518 1517 1517 1517 1516 1516 1515 1514 1515 1516 1517 1518
1492 1492 1494 1497 1499 1501 1503 1504 1505 1505 1506 1507 1507 1508 1510 1512 1513 1514 1514 1514 1514 1514 1514 1513 1514 1515 1516 1517 1517 1517 1517 1517 1517 1517 1517 1518 1518 1516 1515 1515 1515 1516 1517
1494 1494 1495 1497 1499 1501 1503 1504 1505 1506 1506 1507 1509 1509 1511 1512 1514 1516 1516 1515 1515 1515 1514 1515 1515 1516 1517 1517 1517 1517 1517 1517 1517 1517 1519 1519 1519 1516 1516 1515 1515 1516 1516
1495 1497 1496 1497 1500 1502 1503 1504 1505 1506 1507 1508 1510 1511 1512 1514 1515 1516 1517 1517 1516 1516 1516 1517 1517 1517 1518 1518 1518 1517 1517 1517 1517 1518 1520 1519 1518 1516 1515 1515 1515 1515 1515
1494 1498 1497 1499 1501 1503 1503 1505 1506 1507 1508 1509 1511 1512 1513 1514 1515 1516 1517 1518 1518 1518 1518 1518 1519 1519 1518 1519 1518 1518 1518 1517 1518 1520 1519 1519 1517 1516 1516 1515 1515 1515 1514
1495 1496 1497 1500 1502 1504 1506 1506 1506 1507 1509 1510 1511 1513 1514 1514 1515 1516 1517 1518 1519 1519 1519 1519 1519 1520 1520 1520 1519 1519 1519 1519 1519 1520 1519 1518 1517 1515 1515 1513 1514 1515 1514
1494 1497 1496 1499 1502 1505 1507 1508 1507 1508 1509 1510 1512 1513 1513 1514 1515 1517 1518 1519 1519 1520 1520 1519 1520 1521 1520 1521 1520 1520 1519 1519 1518 1520 1519 1517 1515 1514 1513 1513 1513 1514 1514
1494 1496 1497 1499 1501 1503 1506 1508 1508 1508 1509 1510 1512 1513 1514 1515 1515 1516 1518 1518 1519 1519 1520 1520 1520 1521 1521 1520 1520 1519 1518 1518 1517 1518 1516 1517 1514 1513 1512 1511 1511 1511 1512
1493 1495 1498 1499 1501 1502 1503 1507 1508 1507 1509 1510 1511 1513 1514 1515 1516 1517 1518 1518 1519 1519 1520 1521 1521 1521 1520 1520 1519 1518 1517 1517 1517 1517 1517 1514 1513 1512 1511 1510 1509 1509 1510
1493 1495 1497 1500 1501 1501 1502 1505 1507 1506 1508 1510 1511 1512 1514 1516 1516 1517 1516 1517 1518 1520 1520 1521 1521 1520 1519 1518 1518 1517 1516 1517 1516 1516 1515 1512 1512 1510 1509 1508 1508 1507 1506
1491 1493 1495 1498 1500 1500 1501 1502 1505 1505 1507 1509 1510 1512 1513 1515 1516 1516 1517 1517 1518 1519 1520 1520 1520 1520 1519 1519 1517 1516 1515 1514 1514 1513 1511 1510 1509 1508 1508 1506 1505 1505 1504
1489 1491 1493 1497 1497 1498 1499 1499 1503 1506 1506 1509 1510 1511 1512 1512 1514 1516 1516 1517 1517 1518 1519 1520 1519 1518 1518 1516 1515 1515 1513 1511 1511 1511 1506 1507 1506 1507 1505 1504 1503 1503 1502
1487 1489 1489 1493 1495 1497 1497 1497 1500 1503 1506 1508 1509 1510 1511 1512 1514 1516 1518 1517 1517 1518 1518 1519 1518 1517 1517 1515 1512 1511 1510 1509 1509 1508 1504 1504 1503 1504 1503 1502 1501 1501 1501
1484 1486 1487 1489 1490 1494 1497 1496 1497 1501 1504 1507 1508 1508 1510 1511 1514 1515 1515 1515 1516 1517 1518 1518 1517 1515 1514 1512 1509 1508 1507 1506 1506 1506 1503 1503 1501 1502 1501 1500 1500 1500 1499
1481 1482 1484 1485 1485 1488 1491 1494 1496 1499 1502 1504 1506 1506 1510 1512 1513 1512 1513 1514 1514 1516 1516 1516 1515 1513 1511 1509 1507 1506 1505 1505 1503 1504 1503 1501 1500 1500 1499 1499 1499 1498 1497
1477 1479 1481 1483 1484 1483 1487 1490 1493 1497 1500 1500 1503 1506 1508 1508 1509 1510 1512 1513 1513 1515 1514 1513 1513 1511 1509 1506 1505 1504 1503 1502 1502 1502 1501 1500 1499 1498 1498 1497 1497 1495 1494
1472 1474 1477 1479 1481 1481 1482 1485 1489 1494 1496 1498 1501 1503 1504 1505 1507 1509 1510 1511 1512 1512 1512 1511 1510 1509 1506 1504 1503 1502 1501 1500 1500 1501 1499 1498 1499 1497 1495 1495 1494 1493 1492
1468 1470 1471 1474 1476 1478 1478 1482 1487 1489 1492 1497 1499 1500 1501 1503 1505 1507 1508 1510 1511 1511 1511 1510 1508 1506 1504 1502 1501 1500 1497 1498 1498 1498 1498 1497 1497 1495 1495 1492 1491 1489 1488
1461 1465 1466 1467 1470 1474 1473 1478 1483 1487 1489 1490 1493 1496 1499 1501 1503 1504 1506 1507 1509 1510 1510 1508 1507 1504 1503 1501 1499 1498 1497 1497 1497 1497 1497 1497 1495 1492 1492 1490 1488 1486 1484
1454 1457 1460 1461 1462 1466 1470 1470 1476 1479 1483 1485 1488 1491 1496 1499 1501 1502 1504 1506 1508 1508 1508 1507 1505 1503 1501 1500 1498 1498 1497 1496 1495 1497 1495 1494 1494 1491 1489 1487 1485 1483 1480
1447 1450 1452 1454 1456 1459 1460 1464 1469 1472 1477 1481 1484 1488 1492 1496 1498 1500 1503 1505 1506 1507 1507 1506 1504 1502 1500 1499 1498 1497 1497 1498 1496 1495 1493 1492 1491 1488 1486 1484 1481 1479 1475
1439 1442 1445 1447 1449 1450 1453 1456 1462 1467 1471 1474 1479 1484 1488 1492 1496 1499 1501 1503 1504 1505 1505 1505 1503 1502 1500 1498 1497 1498 1497 1497 1494 1492 1492 1490 1490 1486 1484 1480 1477 1475 1470
1430 1434 1438 1440 1442 1443 1445 1449 1452 1455 1460 1467 1472 1479 1484 1488 1492 1495 1498 1501 1502 1503 1503 1503 1502 1501 1500 1498 1496 1495 1495 1495 1495 1491 1490 1489 1487 1483 1480 1476 1473 1471 1466
1422 1425 1429 1434 1435 1438 1440 1444 1449 1453 1459 1461 1467 1474 1480 1485 1488 1493 1496 1499 1500 1500 1501 1500 1499 1499 1499 1498 1496 1494 1492 1491 1491 1491 1485 1484 1482 1480 1476 1471 1468 1465 1462
1413 1418 1420 1427 1428 1431 1435 1440 1443 1450 1451 1457 1463 1468 1475 1480 1484 1489 1494 1497 1498 1498 1498 1497 1497 1496 1497 1496 1494 1492 1490 1489 1489 1488 1484 1479 1475 1472 1470 1466 1463 1461 1458